[[{"header":{"parameterUnit":"m.s-1","parameterCategory":1,"la1":30.2991,"la2":30.254,"lo1":-89.0895,"lo2":-89.0444,"dy":0.0017,"dx":0.0017,"nx":28,"ny":28,"refTime":"2024-11-27T03:00:00:Z","depth":0,"parameterNumber":2,"parameterNumberName":"U-component_of_WINDS"},"data":[0,0,0,0,0,0,0,0,0,0,0,0,0,0,0,0,0,0,0,0,0,0,0,0,0,0,0,0,0,0,0,0,0,0,0,0,0,0,0,0,0,0,0,0,0,0,0,0,0,0,0,0,0,0,0,0,0,0,4.0246,4.0247,0,4.0402,4.0404,4.0406,4.0392,4.0389,4.0387,4.0385,4.0549,4.0555,4.0562,0,0,0,0,0,0,0,0,0,0,0,0,0,3.9938,3.9944,4.0245,4.0247,4.0249,4.0402,4.0404,4.0406,4.0392,4.0389,4.0386,4.0384,4.0547,4.0554,4.0562,0,0,0,0,0,0,0,0,0,0,0,0,0,4.0081,3.9946,4.0245,4.0261,4.0264,4.0401,4.0404,4.0407,4.0393,4.0389,4.0386,4.0382,4.0544,4.0554,4.0563,4.0697,0,0,4.0594,4.0598,0,0,0,0,0,0,0,0,4.0073,4.0092,4.0256,4.026,4.0263,4.0374,4.0356,4.0504,4.0394,4.0344,4.0385,4.038,4.0494,4.0508,4.0545,4.0705,4.0712,4.0595,4.0601,4.0605,4.0608,0,0,0,0,0,0,0,4.0063,4.0085,4.0307,4.0259,4.0263,4.0261,4.0277,4.0384,4.0437,4.0348,4.0347,4.0366,4.0495,4.0535,4.0549,4.0714,4.0594,4.0603,4.0609,4.0613,4.0992,4.0996,0,0,0,0,0,0,4.0049,4.0077,4.0303,4.0312,4.0157,4.027,4.0288,4.0342,4.0436,4.0447,4.0369,4.0365,4.052,4.0537,4.0554,4.0717,4.0605,4.0614,4.062,4.0988,4.0993,4.0997,0,0,0,0,0,0,4.0042,4.0069,4.0296,4.0195,4.0223,4.0279,4.034,4.0347,4.0387,4.0452,4.0462,4.04,4.0518,4.054,4.0661,4.0722,4.0619,4.0628,4.0983,4.0989,4.0995,4.1043,0,0,0,0,0,0,4.0033,4.0067,4.0117,4.0196,4.0229,4.04,4.0343,4.0353,4.0404,4.04,4.0484,4.0494,4.0517,4.0647,4.0671,4.0734,4.0635,4.0978,4.0986,4.0993,4.1036,4.105,4.1062,0,0,0,0,0,4.0022,4.0125,4.012,4.0147,4.0293,4.0403,4.0422,4.0445,4.0409,4.0461,4.0502,4.0491,4.0712,4.0659,4.0687,4.0754,4.0974,4.0983,4.0992,4.103,4.1047,4.1061,0,0,0,0,0,0,4.0053,4.0136,4.0131,4.0261,4.0325,4.04,4.0466,4.0462,4.0539,4.0532,4.0559,4.0578,4.0699,4.0739,4.0679,4.0888,4.0838,4.0853,4.0858,4.0874,4.0887,4.0875,4.0644,0,0,0,0,0,4.0075,4.0157,4.0225,4.0334,4.0366,4.0411,4.046,4.0472,4.054,4.0567,4.0617,4.0684,4.0769,4.0824,4.0905,4.1042,4.106,4.1101,4.1114,4.1124,4.1137,4.1213,4.1232,4.1027,4.1027,4.1027,0,0,4.0121,4.0176,4.0226,4.0341,4.0392,4.0477,4.0433,4.0525,4.0589,4.0581,4.0698,4.0737,4.0814,4.0944,4.1003,4.098,4.1198,4.1136,4.1144,4.1151,4.1224,4.1243,4.1261,4.1034,4.1032,4.1031,0,0,4.0249,4.0299,4.0395,4.0446,4.0524,4.0553,4.0576,4.0652,4.0678,4.0795,4.0791,4.0868,4.1013,4.1067,4.1114,4.1263,4.1256,4.1289,4.1356,4.1429,4.1445,4.146,4.1513,4.1531,4.1302,4.1302,4.1302,0,4.0297,4.0423,4.0445,4.0537,4.0588,4.0584,4.0682,4.0732,4.0833,4.0868,4.0841,4.1022,4.1074,4.1216,4.1252,4.129,4.1318,4.1279,4.1441,4.1456,4.147,4.152,4.154,4.1305,4.1305,4.1304,4.1304,0,4.0478,4.0567,4.0635,4.0731,4.079,4.0885,4.0922,4.0979,4.0986,4.1019,4.1139,4.1201,4.1294,4.1329,4.1338,4.1473,4.1456,4.1435,4.1385,4.1492,4.154,4.156,4.131,4.1309,4.1308,4.1307,0,0,4.0629,4.0735,4.076,4.0804,4.0889,4.0958,4.1053,4.1144,4.1192,4.1262,4.1343,4.1466,4.1446,4.1499,4.1514,4.1579,4.1693,4.155,4.1552,4.1574,4.1846,4.1861,4.1883,4.1689,4.1693,4.1696,4.1839,0,4.0765,4.0932,4.0954,4.1103,4.1185,4.1183,4.1266,4.1328,4.1361,4.1436,4.1473,4.156,4.1527,4.156,4.1623,4.1665,4.1748,4.1655,4.1765,4.1769,4.1745,4.1909,4.1925,4.2057,4.1858,4.1862,4.1864,0,4.0945,4.1019,4.1175,4.1249,4.1284,4.1358,4.1443,4.1515,4.1585,4.1605,4.1664,4.1672,4.1771,4.1718,4.1856,4.1793,4.1839,4.1867,4.1873,4.1884,4.1822,4.1924,4.21,4.212,4.1894,4.1892,4.1889,0,4.1039,4.1177,4.1288,4.1326,4.1415,4.1467,4.1507,4.1574,4.1627,4.1702,4.1737,4.1822,4.1869,4.1936,4.1967,4.1925,4.2103,4.2052,4.2123,4.2122,4.216,4.2157,4.2346,4.2191,4.2191,4.219,4.219,0,4.1188,4.1284,4.1332,4.14,4.1508,4.1533,4.164,4.1678,4.1737,4.1814,4.1818,4.189,4.1926,4.2004,4.2029,4.214,4.2161,4.218,4.2186,4.218,4.2177,4.221,4.2202,4.2196,4.2194,4.2193,4.2192,0,4.1311,4.1347,4.1468,4.1542,4.1563,4.1639,4.1703,4.1771,4.1803,4.19,4.1924,4.1976,4.2068,4.2105,4.2218,4.2235,4.2362,4.2361,4.2338,4.2339,4.2408,4.2401,4.2624,4.2655,4.248,4.2481,4.2483,0,4.1403,4.1476,4.1558,4.1609,4.1651,4.1733,4.1787,4.1816,4.1872,4.1958,4.2015,4.2106,4.2181,4.2328,4.2377,4.2463,4.2464,4.2536,4.2477,4.2469,4.2465,4.246,4.2467,4.2547,4.2549,4.255,4.2551,0,4.1563,4.1577,4.1654,4.1738,4.1801,4.1869,4.1935,4.1977,4.2016,4.2079,4.2172,4.223,4.2345,4.2436,4.2525,4.2568,4.2567,4.257,4.2591,4.2585,4.2569,4.2578,4.2367,4.2564,4.2563,4.2562,4.2561,4.2561,4.1673,4.1738,4.1806,4.1892,4.1944,4.2006,4.2072,4.2113,4.2191,4.2286,4.2298,4.2399,4.2468,4.2588,4.2634,4.2713,4.2695,4.2725,4.2733,4.274,4.2744,4.2556,4.273,4.273,4.2729,4.2729,4.2729,0,4.1833,4.1877,4.1955,4.2047,4.2114,4.2106,4.2179,4.2236,4.2324,4.2388,4.2462,4.2569,4.2658,4.2713,4.2802,4.2856,4.2857,4.2878,4.2874,4.2884,4.2756,4.2729,4.2875,4.2875,4.2875,4.2875,4.2875,4.2875,4.1924,4.2034,4.2056,4.2192,4.2236,4.2333,4.2375,4.2432,4.2484,4.2603,4.2676,4.2711,4.2773,4.2866,4.2948,4.2962,4.2994,4.3016,4.3029,4.2908,4.2893,4.2879,4.2853,4.3023,4.3024,4.3151,4.3152,4.3153]},{"header":{"parameterUnit":"m.s-1","parameterCategory":1,"la1":30.2991,"la2":30.254,"lo1":-89.0895,"lo2":-89.0444,"dy":0.0017,"dx":0.0017,"nx":28,"ny":28,"refTime":"2024-11-27T03:00:00:Z","depth":0,"parameterNumber":3,"parameterNumberName":"V-component_of_WINDS"},"data":[0,0,0,0,0,0,0,0,0,0,0,0,0,0,0,0,0,0,0,0,0,0,0,0,0,0,0,0,0,0,0,0,0,0,0,0,0,0,0,0,0,0,0,0,0,0,0,0,0,0,0,0,0,0,0,0,0,0,3.6963,3.6965,0,3.7099,3.71,3.7102,3.7095,3.7093,3.7091,3.7089,3.7226,3.7231,3.7236,0,0,0,0,0,0,0,0,0,0,0,0,0,3.6697,3.6702,3.6963,3.6965,3.6966,3.7098,3.71,3.7102,3.7095,3.7093,3.7091,3.7088,3.7224,3.723,3.7237,0,0,0,0,0,0,0,0,0,0,0,0,0,3.6821,3.6704,3.6963,3.6979,3.6982,3.7098,3.71,3.7103,3.7096,3.7093,3.709,3.7087,3.7222,3.723,3.7238,3.7346,0,0,3.7263,3.7266,0,0,0,0,0,0,0,0,3.6814,3.6831,3.6975,3.6978,3.6981,3.7077,3.7057,3.7184,3.7096,3.7052,3.7089,3.7086,3.7178,3.719,3.7222,3.7352,3.7358,3.7263,3.7268,3.7272,3.7274,0,0,0,0,0,0,0,3.6805,3.6825,3.7017,3.6977,3.6981,3.6979,3.6994,3.7081,3.713,3.7056,3.7056,3.7072,3.718,3.7214,3.7225,3.736,3.7263,3.727,3.7275,3.7279,3.7588,3.7591,0,0,0,0,0,0,3.6793,3.6818,3.7012,3.7021,3.6889,3.6986,3.7002,3.7049,3.7129,3.7138,3.7074,3.7071,3.7201,3.7215,3.723,3.7363,3.7272,3.7279,3.7284,3.7585,3.7589,3.7592,0,0,0,0,0,0,3.6788,3.6811,3.7007,3.6919,3.6944,3.6994,3.7047,3.7053,3.7088,3.7143,3.7151,3.7101,3.72,3.7218,3.7318,3.7367,3.7283,3.729,3.7581,3.7586,3.759,3.7629,0,0,0,0,0,0,3.678,3.6809,3.6851,3.692,3.6949,3.7093,3.705,3.7058,3.7102,3.7099,3.717,3.7178,3.7199,3.7305,3.7326,3.7377,3.7297,3.7576,3.7583,3.7589,3.7624,3.7635,3.7645,0,0,0,0,0,3.6771,3.6855,3.6853,3.6876,3.7002,3.7096,3.7112,3.7135,3.7106,3.7149,3.7184,3.7176,3.7358,3.7316,3.7338,3.7393,3.7573,3.7581,3.7588,3.7619,3.7633,3.7644,0,0,0,0,0,0,3.679,3.6865,3.6863,3.6973,3.7028,3.7095,3.7149,3.7148,3.7212,3.7207,3.7231,3.7247,3.7347,3.738,3.7331,3.7503,3.7462,3.7475,3.7478,3.7491,3.7502,3.7492,3.7304,0,0,0,0,0,3.6807,3.6877,3.6939,3.703,3.7058,3.7099,3.714,3.7153,3.7211,3.7234,3.7277,3.7333,3.7403,3.7449,3.7516,3.7628,3.7644,3.7677,3.7687,3.7696,3.7706,3.7769,3.7785,3.7617,3.7617,3.7617,0,0,3.6842,3.6892,3.6935,3.7035,3.7079,3.7152,3.7118,3.7196,3.725,3.7246,3.7343,3.7376,3.744,3.7547,3.7596,3.7578,3.7756,3.7705,3.7711,3.7718,3.7779,3.7795,3.7809,3.7622,3.7621,3.762,0,0,3.6945,3.6989,3.7071,3.7117,3.7185,3.7211,3.7231,3.7298,3.7321,3.7419,3.7418,3.7481,3.7601,3.7648,3.7687,3.7808,3.7804,3.7829,3.7884,3.7945,3.7958,3.797,3.8015,3.8031,3.7839,3.784,3.784,0,3.6981,3.709,3.7113,3.7192,3.7236,3.7236,3.7319,3.7362,3.7448,3.7479,3.7457,3.7608,3.7651,3.7769,3.7799,3.783,3.7854,3.7822,3.7955,3.7967,3.7978,3.8021,3.8038,3.7842,3.7842,3.7842,3.7841,0,3.7132,3.7208,3.7265,3.735,3.7401,3.7481,3.7516,3.7564,3.7572,3.7601,3.7702,3.7753,3.7832,3.7861,3.7869,3.7981,3.7967,3.795,3.791,3.7997,3.8038,3.8054,3.7846,3.7845,3.7844,3.7844,0,0,3.725,3.7347,3.7368,3.7408,3.7483,3.7542,3.7622,3.7701,3.7742,3.7801,3.787,3.7972,3.7957,3.8001,3.8014,3.8068,3.8163,3.8044,3.8046,3.8066,3.8291,3.8304,3.8323,3.8159,3.8163,3.8165,3.8286,0,3.7362,3.7506,3.7529,3.7655,3.7727,3.7728,3.7798,3.7852,3.7882,3.7946,3.7978,3.805,3.8024,3.8051,3.8104,3.814,3.8208,3.8131,3.8224,3.8227,3.821,3.8344,3.8359,3.847,3.8301,3.8304,3.8306,0,3.7511,3.7577,3.7711,3.7778,3.7809,3.7872,3.7946,3.8007,3.8068,3.8086,3.8136,3.8143,3.8227,3.8182,3.8298,3.8245,3.8284,3.8308,3.8312,3.8323,3.8273,3.836,3.8506,3.8523,3.8331,3.8329,3.8327,0,3.7587,3.7707,3.7804,3.7837,3.7917,3.7962,3.7997,3.8056,3.8102,3.8166,3.8196,3.8268,3.8308,3.8364,3.8391,3.8356,3.8505,3.8462,3.8523,3.8522,3.8555,3.8553,3.8711,3.8578,3.8577,3.8577,3.8577,0,3.771,3.7792,3.7839,3.7898,3.7991,3.8016,3.8107,3.8141,3.8193,3.8259,3.8263,3.8325,3.8356,3.8422,3.8443,3.8536,3.8553,3.857,3.8575,3.8571,3.8569,3.8598,3.8591,3.8582,3.8581,3.858,3.8579,0,3.7809,3.7844,3.795,3.8018,3.8037,3.8102,3.816,3.8218,3.8247,3.833,3.8351,3.8397,3.8475,3.8507,3.8602,3.8616,3.8724,3.8722,3.8704,3.8706,3.8765,3.8759,3.8948,3.8975,3.8822,3.8824,3.8825,0,3.7886,3.795,3.8026,3.8071,3.8108,3.818,3.8228,3.8255,3.8304,3.8379,3.8428,3.8506,3.8571,3.8695,3.8737,3.881,3.8811,3.8872,3.8821,3.8816,3.8813,3.881,3.8817,3.8881,3.8883,3.8884,3.8885,0,3.802,3.8034,3.8103,3.8178,3.8235,3.8295,3.8353,3.839,3.8426,3.848,3.8561,3.8611,3.871,3.8788,3.8863,3.8899,3.8899,3.89,3.8918,3.8916,3.8903,3.8912,3.8731,3.8896,3.8895,3.8894,3.8894,3.8893,3.8112,3.8169,3.8232,3.8309,3.8356,3.8411,3.8469,3.8506,3.8574,3.8657,3.8668,3.8755,3.8815,3.8917,3.8956,3.9024,3.9009,3.9034,3.9041,3.9047,3.9052,3.8891,3.9038,3.9038,3.9037,3.9037,3.9037,0,3.8247,3.8288,3.8358,3.8441,3.8501,3.8496,3.8561,3.8611,3.8688,3.8745,3.8808,3.8902,3.8978,3.9025,3.9102,3.9147,3.9149,3.9166,3.9164,3.9173,3.9061,3.9039,3.9164,3.9164,3.9164,3.9164,3.9164,3.9164,3.8325,3.8422,3.8444,3.8565,3.8605,3.8691,3.8729,3.878,3.8825,3.893,3.8994,3.9024,3.9078,3.9158,3.9228,3.924,3.9268,3.9287,3.9298,3.9193,3.918,3.9168,3.9147,3.9293,3.9293,3.9404,3.9405,3.9406]}]]